Marshalltown, IA

8:02 AM CDT on September 19, 2017 (GMT -0500)
Marshalltown Municipal

Weather History for KMIW - July, 2013

Change the Weather History Date:

Saturday, July 13, 2013

  Actual Average Record
Temperature  
Mean Temperature 69 °F 73 °F  
Max Temperature 74 °F 84 °F 93 °F (2015)
Min Temperature 64 °F 63 °F 50 °F (2007)
Degree Days  
Heating Degree Days 0 0  
Month to date heating degree days 0 0  
Since 1 June heating degree days 37 28  
Since 1 July heating degree days 0 0  
Cooling Degree Days 4 8  
Month to date cooling degree days 114 104  
Year to date cooling degree days 337 317  
Since 1 June cooling degree days 276 267  
Growing Degree Days 18 (Base 50)    
Moisture  
Dew Point 60 °F    
Average Humidity 77    
Maximum Humidity 93    
Minimum Humidity 61    
Precipitation  
Precipitation 0.00 in 0.13 in 0.31 in (2006)
Month to date precipitation 0.20 2.01  
Sea Level Pressure  
Sea Level Pressure 30.06 in    
Wind  
Wind Speed 9 mph (SE)    
Max Wind Speed 17 mph    
Max Gust Speed 23 mph    
Visibility 10 miles    
Events      
T = Trace of Precipitation, MM = Missing Value Source: NWS Daily Summary

Daily Weather History Graph

Daily Weather History Graph

Search for Another Location

Airport or City:

Trip Planner

Search our weather history database for the weather conditions in past years. The results will help you decide how hot, cold, wet, or windy it might be!

Date:

Astronomy

Jul. 13, 2013 Rise Set
Actual Time 5:47 AM CDT 8:46 PM CDT
Civil Twilight 5:14 AM CDT 9:20 PM CDT
Nautical Twilight 4:31 AM CDT 10:02 PM CDT
Astronomical Twilight 3:41 AM CDT 10:52 PM CDT
Moon 11:10 AM CDT (7/13) 11:20 PM CDT (7/13)
Length of Visible Light 16h 06m
Length of Day
14h 59m
Waxing Crescent, 26% of the Moon is Illuminated
Jul 13
Waxing Crescent
Jul 15
First Quarter
Jul 22
Full
Jul 29
Last Quarter
Aug 6
New

Hourly Weather History & Observations

Time (CDT) Temp. Dew Point Humidity Pressure Visibility Wind Dir Wind Speed Gust Speed Precip Events Conditions
12:53 AM 68.0 °F 57.0 °F 68% 30.04 in 10.0 mi SSE 6.9 mph - N/A   Clear
1:53 AM 66.0 °F 57.0 °F 73% 30.03 in 10.0 mi SSE 9.2 mph - N/A   Partly Cloudy
2:53 AM 66.0 °F 57.0 °F 73% 30.02 in 10.0 mi SSE 8.1 mph - N/A   Clear
3:53 AM 64.9 °F 57.0 °F 75% 30.04 in 10.0 mi SSE 6.9 mph - N/A   Clear
4:53 AM 64.9 °F 57.0 °F 75% 30.03 in 10.0 mi SSE 9.2 mph - N/A   Clear
5:53 AM 64.9 °F 55.9 °F 73% 30.03 in 10.0 mi South 9.2 mph - N/A   Clear
6:53 AM 66.9 °F 55.9 °F 68% 30.05 in 10.0 mi SSE 10.4 mph 21.9 mph N/A   Clear
7:53 AM 66.9 °F 57.0 °F 70% 30.06 in 10.0 mi SE 8.1 mph - N/A   Partly Cloudy
8:53 AM 68.0 °F 55.9 °F 65% 30.06 in 10.0 mi SSE 10.4 mph 18.4 mph N/A   Clear
9:53 AM 69.1 °F 55.9 °F 63% 30.07 in 10.0 mi SSE 8.1 mph 23.0 mph N/A   Clear
10:53 AM 70.0 °F 57.9 °F 65% 30.07 in 10.0 mi SSE 9.2 mph - N/A   Clear
11:53 AM 72.0 °F 60.1 °F 66% 30.09 in 10.0 mi SE 9.2 mph - N/A   Clear
12:53 PM 73.0 °F 61.0 °F 66% 30.11 in 10.0 mi East 10.4 mph - N/A   Clear
1:53 PM 72.0 °F 62.1 °F 71% 30.09 in 10.0 mi East 10.4 mph - N/A   Clear
2:53 PM 72.0 °F 62.1 °F 71% 30.07 in 10.0 mi ESE 10.4 mph - N/A   Clear
3:53 PM 72.0 °F 63.0 °F 73% 30.03 in 10.0 mi SE 11.5 mph - N/A   Mostly Cloudy
4:53 PM 73.0 °F 63.0 °F 71% 30.04 in 10.0 mi SE 11.5 mph 19.6 mph N/A   Scattered Clouds
5:53 PM 73.0 °F 63.0 °F 71% 30.05 in 10.0 mi SE 10.4 mph - N/A   Clear
6:53 PM 72.0 °F 62.1 °F 71% 30.04 in 10.0 mi SE 11.5 mph - N/A   Clear
7:53 PM 71.1 °F 62.1 °F 73% 30.05 in 10.0 mi ESE 8.1 mph - N/A   Scattered Clouds
8:53 PM 68.0 °F 63.0 °F 84% 30.05 in 10.0 mi ESE 6.9 mph - N/A   Mostly Cloudy
9:53 PM 66.9 °F 63.0 °F 87% 30.06 in 10.0 mi ESE 5.8 mph - N/A   Mostly Cloudy
10:53 PM 68.0 °F 64.0 °F 87% 30.07 in 10.0 mi ESE 6.9 mph - N/A   Clear
11:53 PM 66.9 °F 64.0 °F 90% 30.08 in 10.0 mi ESE 5.8 mph - N/A   Clear